GFSFLT2_250_spd_132.txt.gz
Wind_Speed
37 36 35 40 62 67 72 76 73 66 62 50 47 54 48 42 37 32 31 30 26 25 25 22 19 17 13 11 14 14 18 25
34 35 32 33 58 72 76 86 76 71 64 51 41 50 54 49 44 40 34 33 33 30 26 24 19 17 15 11 5 11 15 17
33 33 30 30 55 71 82 79 73 75 68 44 60 59 43 59 51 45 40 36 39 37 31 25 24 20 18 17 11 9 13 16
31 31 27 28 54 71 76 79 82 81 81 72 37 73 51 53 59 51 44 41 39 40 37 31 29 28 24 19 17 16 16 17
27 25 24 29 48 76 75 79 87 89 88 79 61 73 78 59 60 53 46 43 40 43 41 42 38 36 32 27 25 24 23 23
25 22 22 31 54 70 77 83 89 92 91 96 81 72 75 76 62 58 52 36 34 35 50 47 45 43 41 36 32 31 32 31
25 22 15 28 46 66 80 87 87 92 94 91 84 74 76 74 67 63 56 50 51 51 50 48 52 47 44 40 34 40 39 37
23 25 22 25 44 63 79 84 84 89 97 95 87 57 88 81 75 69 64 52 54 53 49 47 61 52 49 45 43 42 40 40
21 27 22 21 43 55 76 85 91 96 95 95 98 92 86 89 82 79 72 68 66 57 59 47 45 55 50 49 47 47 45 42
23 24 28 24 50 57 64 84 82 85 94 98 93 98 95 96 91 84 83 80 81 79 75 68 62 52 54 48 50 51 52 50
25 24 30 29 29 64 63 66 82 90 91 95 88 87 98 99 93 93 89 85 84 84 83 79 78 68 64 61 48 57 57 56
28 28 30 26 31 37 68 73 74 84 90 89 86 78 82 99 99 98 97 89 89 90 86 87 85 76 72 70 67 57 62 61
31 33 33 27 31 42 43 49 82 77 80 87 87 72 101 81 104 102 102 101 94 94 94 90 88 85 81 77 76 70 63 63
38 34 38 33 38 44 44 40 49 73 95 89 99 97 86 103 97 101 111 106 104 95 97 95 93 89 87 85 84 80 74 69
40 35 36 36 38 42 48 48 47 58 66 97 105 107 95 97 104 113 107 114 110 107 99 96 97 97 93 88 89 85 84 81
41 38 34 37 43 51 54 56 57 57 68 61 67 107 118 110 110 101 117 116 114 113 113 109 104 103 100 97 93 93 91 88
41 40 41 49 52 56 59 58 62 63 66 77 78 76 100 121 119 121 112 120 121 120 117 114 113 110 107 104 103 99 95 95
42 45 47 58 55 54 54 52 55 60 68 81 89 83 94 102 115 119 122 116 123 125 116 118 116 112 111 110 110 106 103 100
46 50 53 58 50 48 51 54 57 56 61 72 89 100 95 96 100 110 114 120 122 121 122 115 113 114 115 114 110 104 108 104

GFSFLT2_250_spd_135.txt.gz
Wind_Speed
39 40 38 38 41 45 50 56 67 67 63 53 47 41 34 31 33 24 24 21 24 24 21 19 21 22 24 24 23 22 20 21
42 43 42 43 42 44 47 58 67 75 66 59 51 44 41 43 35 32 29 28 25 28 25 20 19 17 19 20 19 20 21 21
38 35 34 35 37 41 48 64 71 78 73 65 56 55 52 53 44 40 33 38 34 29 28 25 20 18 15 15 17 16 16 18
25 33 35 36 36 41 48 68 77 80 76 67 52 53 52 58 53 49 44 43 42 37 33 29 26 21 17 15 15 17 17 16
28 30 32 34 34 35 46 64 81 81 80 73 50 46 52 59 62 55 52 44 43 44 39 35 30 26 24 23 20 16 20 23
31 30 27 28 30 30 38 61 80 85 85 71 57 52 42 54 62 62 59 52 48 48 44 42 38 30 29 28 27 24 23 25
29 28 26 25 23 27 34 62 80 85 85 81 73 56 48 55 48 64 63 61 56 53 44 45 43 39 36 35 29 31 29 30
27 25 20 24 22 22 34 58 76 85 88 91 80 86 41 61 61 58 63 67 64 54 51 42 43 46 44 40 38 37 21 26
27 24 22 22 25 25 28 48 76 86 87 96 82 72 83 56 72 74 67 64 68 56 46 46 43 33 56 42 44 45 33 44
28 23 25 23 25 25 30 39 59 83 86 96 103 97 83 66 69 79 80 74 65 61 57 50 50 54 59 46 47 44 49 41
25 24 24 24 22 28 29 27 50 69 84 89 101 103 101 91 75 76 79 79 77 71 66 65 61 59 57 55 53 54 55 59
25 25 25 19 21 27 35 31 39 58 75 88 95 100 102 101 94 81 79 80 77 79 75 71 64 73 64 50 58 62 57 55
28 28 29 22 22 29 36 35 36 48 60 82 92 95 96 102 106 103 97 86 85 82 84 79 73 73 78 62 59 62 58 48
33 32 33 30 28 34 37 40 42 43 56 57 80 92 95 98 106 106 106 98 100 98 92 89 85 83 80 82 75 75 71 65
34 34 36 33 33 34 42 45 43 45 46 56 66 67 93 96 108 108 111 107 98 102 98 97 95 95 94 91 90 87 85 80
35 36 35 37 36 38 40 46 50 48 49 49 53 62 75 90 97 105 109 111 114 104 104 102 102 103 100 99 97 95 93 92
40 39 35 37 43 39 39 42 45 48 47 50 60 60 64 76 88 98 108 111 114 114 112 111 109 108 107 105 103 101 100 96
39 37 36 41 40 42 46 46 44 51 51 57 64 76 73 75 76 95 102 107 109 108 111 117 113 111 110 109 104 105 104 100
37 38 41 39 45 50 50 45 40 31 33 50 64 79 83 80 82 83 91 103 109 109 113 117 115 113 116 116 114 110 109 103

GFSFLT2_250_spd_138.txt.gz
Wind_Speed
38 36 35 36 37 39 40 44 53 67 61 55 50 44 38 35 30 26 26 27 27 23 23 24 25 22 22 22 18 19 24 23
37 38 40 42 43 43 45 46 45 53 66 66 60 52 49 44 36 30 30 29 29 28 24 22 25 23 22 19 18 22 22 20
39 42 43 44 46 46 47 47 50 50 62 72 63 58 53 49 46 42 36 33 32 32 30 28 26 23 19 18 17 17 18 18
40 43 45 48 48 49 49 49 53 56 60 70 69 65 57 54 53 49 42 32 34 36 33 31 26 24 20 18 16 16 17 18
26 31 38 39 41 44 45 48 54 60 59 68 74 70 64 59 58 55 48 44 44 42 38 34 33 27 24 22 19 18 17 17
24 27 33 35 39 38 37 41 52 61 63 72 79 77 72 62 63 57 55 51 46 46 43 39 37 33 28 24 23 21 20 19
27 23 24 29 32 32 30 36 43 56 63 74 81 81 77 72 70 66 63 59 51 50 47 46 41 35 32 29 28 27 24 24
26 21 24 24 26 25 24 30 37 55 63 79 85 85 81 76 78 75 71 65 60 53 54 55 47 41 31 37 32 30 30 25
23 20 25 20 22 19 19 18 30 49 58 81 87 78 77 74 71 77 78 72 67 65 56 59 53 50 45 37 31 30 31 32
25 21 25 15 18 17 18 20 17 31 52 77 85 71 76 68 70 76 78 77 71 72 70 65 63 61 56 47 42 36 54 53
27 22 21 14 14 14 17 22 28 25 43 71 88 84 75 72 72 76 80 81 76 76 72 66 61 59 57 55 52 26 43 60
30 27 22 20 17 20 19 22 29 27 37 68 87 95 86 70 73 79 78 73 76 72 78 74 68 66 61 59 53 58 32 31
34 31 28 25 25 22 20 20 26 25 24 59 83 93 98 81 74 81 88 87 77 73 73 73 73 74 70 67 66 58 55 44
32 33 32 29 29 29 25 23 22 26 27 32 72 94 103 104 86 77 84 87 81 79 75 68 69 73 73 72 73 67 63 61
32 34 33 32 32 32 31 30 27 27 33 33 39 81 99 110 108 105 94 80 84 83 82 82 80 73 77 74 75 71 70 77
34 34 35 37 36 35 33 34 33 32 34 41 40 44 87 104 111 111 103 97 87 89 88 87 87 85 82 83 82 82 78 83
37 36 37 40 41 40 37 35 35 39 39 40 49 51 50 72 104 112 117 113 105 93 94 92 89 90 90 89 89 90 90 90
39 39 38 38 38 39 38 38 41 40 37 40 45 54 59 60 65 87 117 120 120 117 108 103 99 99 96 94 95 94 94 96
38 37 35 35 38 40 40 46 42 43 45 50 57 59 61 67 70 70 90 107 121 124 121 120 116 109 103 102 102 102 102 100

GFSFLT2_250_spd_141.txt.gz
Wind_Speed
35 35 36 37 37 39 43 45 48 56 61 49 46 43 41 33 27 28 22 20 20 19 20 23 26 32 30 30 30 30 28 24
37 38 37 36 36 37 38 41 41 48 55 55 53 48 41 37 34 35 31 24 22 25 25 26 28 28 26 20 26 26 23 22
38 41 41 40 40 38 38 38 40 41 48 57 58 53 45 39 38 37 29 33 31 28 25 24 28 29 26 21 19 27 22 22
37 39 41 41 42 43 44 43 43 44 44 51 66 61 54 48 46 43 34 34 37 36 32 29 27 27 25 24 23 23 23 21
39 40 41 44 46 48 48 48 48 49 50 50 56 72 66 56 56 52 44 40 41 39 35 32 32 28 27 25 25 25 24 21
38 31 32 34 38 41 43 44 46 50 55 54 56 60 75 69 65 61 55 49 46 43 39 39 36 34 30 28 27 25 24 25
31 26 29 32 34 32 34 39 45 48 52 57 60 59 64 77 73 69 62 57 52 50 47 44 41 38 33 31 28 26 24 23
31 30 29 33 27 29 31 33 42 47 51 54 60 63 65 79 79 75 69 65 60 55 53 47 45 43 37 35 31 26 24 21
35 32 28 28 26 29 30 28 36 40 46 56 59 65 71 78 86 81 77 71 65 64 56 54 52 49 44 41 37 34 31 31
33 31 29 22 26 28 29 26 33 34 41 53 58 65 75 78 89 87 83 79 71 73 63 61 58 56 52 45 41 32 44 38
35 33 30 27 28 29 28 26 26 31 33 41 52 64 75 82 91 94 89 84 77 78 71 68 65 62 57 60 55 51 49 42
34 33 32 30 30 28 28 27 22 23 24 29 39 59 72 74 88 96 96 91 84 83 79 75 71 69 64 65 61 55 51 48
34 31 32 35 35 33 30 31 27 22 20 19 27 48 68 77 78 81 91 97 93 88 87 84 79 72 71 68 66 63 58 56
36 32 33 33 36 37 36 35 32 29 25 20 26 31 60 80 75 70 76 87 99 96 94 92 87 80 76 71 71 71 68 68
38 37 35 35 38 37 38 37 36 36 33 27 22 29 41 88 86 76 83 84 89 91 93 92 91 88 83 80 80 77 74 74
38 37 35 38 36 36 37 39 38 36 36 33 31 25 30 71 96 92 85 86 88 92 88 92 92 90 88 85 84 84 81 77
38 39 40 39 34 35 40 42 42 39 38 37 35 35 32 34 102 106 97 91 93 93 96 92 93 92 90 90 89 91 89 86
39 40 41 39 41 41 42 44 42 41 41 42 42 41 40 43 54 107 107 105 97 95 93 96 93 92 88 89 89 94 95 93
40 41 40 41 42 43 41 41 40 40 42 44 46 48 48 51 52 60 109 112 109 102 98 99 95 93 93 96 96 96 96 94

GFSFLT2_250_spd_147.txt.gz
Wind_Speed
36 36 35 33 36 36 37 38 42 45 52 49 47 42 40 35 27 16 14 14 8 5 12 21 41 43 41 36 33 38 37 33
34 34 34 34 34 35 37 38 39 43 46 54 53 51 45 40 33 26 23 19 17 12 13 25 35 45 39 36 34 36 33 32
33 33 33 33 34 35 36 36 37 39 42 47 60 58 54 46 42 35 29 26 22 18 18 22 33 38 37 35 36 34 30 26
32 33 33 33 34 36 35 36 37 38 40 43 51 59 54 52 50 46 37 32 32 26 24 27 26 35 40 37 36 32 31 28
30 32 33 34 34 34 34 35 37 38 39 40 42 47 50 49 56 53 41 36 38 34 33 34 32 32 35 36 35 34 31 31
31 33 34 34 34 34 34 35 37 38 40 40 41 43 43 43 52 54 48 43 43 42 38 40 37 35 37 36 34 34 35 32
29 31 34 35 33 33 32 33 36 40 42 41 44 45 45 45 52 59 55 50 46 46 44 40 42 41 42 39 36 33 37 36
29 28 30 35 38 36 35 34 33 35 38 41 44 47 49 48 48 60 63 58 52 50 52 49 46 46 46 46 42 37 36 38
33 28 30 36 35 36 37 35 35 34 31 33 37 43 49 52 53 55 61 67 63 57 57 56 54 51 48 46 46 42 40 39
39 33 31 33 33 33 35 35 35 32 28 30 29 34 41 50 57 60 59 62 69 67 63 60 56 56 54 50 47 46 46 44
42 38 35 36 35 35 38 36 36 29 24 25 28 32 37 43 52 62 65 64 69 71 68 66 62 55 57 55 51 51 50 50
45 40 38 38 36 35 34 37 36 28 25 26 26 30 33 37 42 56 67 69 69 75 74 71 67 65 60 59 57 55 57 54
45 44 40 40 39 39 38 37 35 31 28 28 28 31 31 31 34 41 59 71 73 73 81 80 75 70 67 64 62 63 61 60
48 46 42 39 40 42 43 42 41 39 35 33 35 34 33 31 31 38 43 58 74 78 79 86 84 82 78 73 69 68 67 68
47 47 44 44 42 40 41 42 40 39 37 36 38 39 39 38 36 34 39 46 54 74 81 82 87 90 88 84 79 74 72 72
43 44 44 43 41 41 41 42 41 41 40 38 35 35 38 44 42 39 38 40 46 57 71 84 85 85 88 89 88 86 81 78
42 43 43 40 39 42 42 44 43 42 42 42 40 40 39 40 42 44 43 43 43 47 60 72 85 87 87 87 88 89 91 85
40 42 42 38 38 43 43 43 43 44 45 45 44 42 41 39 40 42 44 45 48 47 49 60 74 83 87 90 88 91 94 92
37 36 36 38 40 43 43 44 43 44 46 44 45 45 44 43 44 46 47 49 51 53 49 53 63 71 81 88 91 92 97 97

GFSFLT2_250_spd_150.txt.gz
Wind_Speed
36 36 37 37 36 36 39 41 41 43 46 50 52 45 41 34 27 22 15 12 4 2 10 32 37 42 40 41 41 39 41 40
35 36 37 37 37 35 36 40 41 41 44 45 50 49 44 36 32 29 20 15 10 8 15 32 42 42 36 39 38 41 42 39
33 36 37 39 38 37 36 37 39 40 40 46 47 50 49 46 42 38 30 23 18 14 18 27 48 41 37 37 39 40 41 40
28 34 36 38 39 38 37 36 38 39 39 42 46 47 52 51 47 44 39 29 26 20 21 31 46 43 43 39 37 37 38 38
24 31 36 39 40 40 38 38 39 40 39 40 43 47 49 55 52 50 43 37 33 29 26 28 42 46 45 42 40 41 40 40
28 26 34 38 40 41 39 39 40 41 40 40 41 44 47 50 58 54 54 49 40 35 35 31 36 48 49 45 44 46 41 39
29 29 29 37 40 41 42 42 43 41 41 41 42 43 45 48 52 60 58 59 51 42 43 41 39 41 46 46 44 43 39 38
36 31 28 28 35 39 41 41 42 42 42 40 43 43 46 49 50 51 60 62 60 55 50 49 45 43 42 43 47 47 46 42
41 37 30 28 32 34 38 40 41 43 42 41 43 44 47 49 51 52 52 57 59 57 56 55 53 50 48 47 47 48 47 43
47 43 39 33 32 30 34 37 41 44 41 40 40 43 46 48 50 53 54 55 58 60 60 60 58 56 53 51 50 51 51 48
48 47 42 39 34 34 33 34 34 33 35 35 34 36 40 42 47 53 56 57 61 63 64 65 62 61 58 56 52 53 56 55
52 49 48 44 38 37 37 37 31 31 31 33 32 34 37 37 40 46 54 60 61 64 66 68 68 65 65 63 59 57 55 56
53 52 51 45 44 39 38 37 34 30 31 32 33 33 32 32 35 38 45 53 61 64 67 68 72 73 69 67 67 65 62 59
54 53 52 49 44 43 39 39 39 32 31 32 34 33 32 34 32 31 32 36 49 62 68 70 71 73 75 73 72 70 66 65
50 53 54 52 44 42 42 41 40 38 33 35 35 36 37 34 35 34 34 35 36 47 61 68 72 74 75 77 77 76 71 66
50 53 53 51 46 42 44 44 41 41 40 38 35 38 36 37 36 38 40 40 38 37 47 57 67 75 78 79 81 82 80 75
51 50 51 49 46 42 43 45 43 40 41 40 39 38 36 36 34 34 37 40 44 44 43 48 56 66 79 82 83 86 86 84
48 48 46 45 42 44 45 42 43 42 42 43 42 41 41 41 40 39 40 41 42 45 50 50 51 58 65 77 86 87 91 90
44 43 41 43 40 41 39 40 40 42 45 44 44 44 44 44 44 44 43 43 45 46 48 50 54 55 60 64 77 87 92 92